Meteo Giornale » Osservazioni meteo Russia » St Peterburg
ore: 22:00 - Osservazioni Meteo St Peterburg
Lat. 59° 58' N Lon. 30° 18' E Alt. 4 metri s.l.m.
15 °C
Nuvoloso
Temp. 24 Ore
13 °C
22 °C
Nord
3.6 Km/h
Dew point 12 °C
Umidità 82 %
Visibilità 10 Km
Il sole sorge alle ore 05:54
Il sole tramonta alle ore 20:03
| Data e Ora | Cielo e Fenomeni | T °C | DP °C | Um. % | Pres. hPa | Vis. km | Vento km/h | |
|---|---|---|---|---|---|---|---|---|
| Oggi h: 22:00 | Nuvoloso | 15 | 12 | 82 | 1007 | 10 | N 3.6 | |
| Oggi h: 21:30 | Nuvoloso | 15 | 12 | 82 | 1008 | 10 | N 3.6 | |
| Oggi h: 21:00 | Nuvoloso | 15 | 12 | 82 | 1008 | 9 | N 3.6 | |
| Oggi h: 20:30 | Nuvoloso | 16 | 13 | 82 | 1008 | 9 | N 7.2 | |
| Oggi h: 20:00 | Sereno | 16 | 12 | 77 | 1008 | 10 | N 7.2 | |
| Oggi h: 19:30 | Sereno | 17 | 12 | 72 | 1008 | 10 | N 7.2 | |
| Oggi h: 19:00 | Sereno | 18 | 12 | 67 | 1008 | 10 | NO 14.4 | |
| Oggi h: 18:30 | Sereno | 19 | 12 | 63 | 1008 | 10 | NO 10.8 | |
| Oggi h: 18:00 | Poco Nuvoloso | 19 | 12 | 63 | 1008 | 10 | NO 14.4 | |
| Oggi h: 17:30 | Poco Nuvoloso | 19 | 12 | 63 | 1008 | 10 | NO 14.4 | |
| Oggi h: 17:00 | Poco Nuvoloso | 20 | 13 | 64 | 1009 | 10 | N/NO 14.4 | |
| Oggi h: 16:30 | Poco Nuvoloso | 21 | 14 | 64 | 1009 | 10 | N/NO 18 | |
| Oggi h: 16:00 | Poco Nuvoloso | 21 | 13 | 60 | 1009 | 10 | O/NO 14.4 | |
| Oggi h: 15:30 | Poco Nuvoloso | 21 | 13 | 60 | 1009 | 10 | SO 14.4 | |
| Oggi h: 15:00 | Nuvoloso | 22 | 12 | 53 | 1009 | 10 | SO 14.4 | |
| Oggi h: 14:57 | Nuvoloso | 21 | 13 | 60 | 1009 | 10 | O/NO 18 | |
| Oggi h: 14:30 | Nuvoloso | 21 | 13 | 60 | 1009 | 10 | SO 14.4 | |
| Oggi h: 14:00 | Nuvoloso | 21 | 12 | 56 | 1009 | 10 | O/SO 10.8 | |
| Oggi h: 13:40 | Nuvoloso | 21 | 12 | 56 | 1009 | 10 | O/SO 14.4 | |
| Oggi h: 13:30 | Nuvoloso | 19 | 12 | 63 | 1009 | 10 | O 14.4 | |
| Oggi h: 13:00 | Nuvoloso | 21 | 12 | 56 | 1009 | 10 | O 18 | |
| Oggi h: 12:30 | Nuvoloso | 19 | 12 | 63 | 1009 | 10 | O 18 | |
| Oggi h: 12:00 | Nuvoloso | 20 | 12 | 59 | 1009 | 10 | O 21.6 | |
| Oggi h: 11:30 | Nuvoloso | 19 | 12 | 63 | 1009 | 10 | O 18 | |
| Oggi h: 11:24 | Nuvoloso | 20 | 13 | 64 | 1009 | 10 | O/SO 14.4 | |
| Oggi h: 11:00 | Nuvoloso | 18 | 12 | 67 | 1009 | 10 | O 18 | |
| Oggi h: 10:30 | Poco Nuvoloso | 19 | 13 | 68 | 1009 | 10 | O/SO 14.4 | |
| Oggi h: 10:00 | Poco Nuvoloso | 18 | 14 | 77 | 1010 | 10 | SO 14.4 | |
| Oggi h: 09:30 | Sereno | 17 | 14 | 82 | 1010 | 10 | SO 14.4 | |
| Oggi h: 09:00 | Sereno | 16 | 14 | 87 | 1010 | 10 | SO 14.4 | |
| Oggi h: 08:30 | Sereno | 16 | 13 | 82 | 1010 | 10 | SO 10.8 | |
| Oggi h: 08:00 | Sereno | 15 | 13 | 87 | 1009 | 10 | SO 10.8 | |
| Oggi h: 07:30 | Sereno | 14 | 12 | 87 | 1009 | 10 | SO 10.8 | |
| Oggi h: 07:00 | Sereno | 13 | 12 | 93 | 1009 | 10 | S/SO 10.8 | |
| Oggi h: 06:30 | Sereno | 13 | 12 | 93 | 1009 | 10 | SO 10.8 | |
| Oggi h: 06:00 | Sereno | 13 | 11 | 87 | 1009 | 10 | SO 10.8 | |
| Oggi h: 05:30 | Sereno | 13 | 12 | 93 | 1009 | 10 | SO 10.8 | |
| Oggi h: 05:00 | Sereno | 14 | 12 | 87 | 1009 | 10 | S/SO 14.4 | |
| Oggi h: 04:30 | Sereno | 13 | 12 | 93 | 1009 | 10 | S/SO 10.8 | |
| Oggi h: 04:00 | Sereno | 14 | 12 | 87 | 1009 | 10 | S/SO 10.8 | |
| Oggi h: 03:30 | Sereno | 14 | 13 | 93 | 1009 | 10 | S/SO 10.8 | |
| Oggi h: 03:00 | Poco Nuvoloso | 15 | 13 | 87 | 1010 | 10 | S/SO 14.4 | |
| Oggi h: 02:30 | Nuvoloso | 15 | 13 | 87 | 1010 | 10 | N 7.2 | |
| Oggi h: 02:00 | Molto Nuvoloso | 15 | 13 | 87 | 1010 | 10 | N 3.6 | |
| Oggi h: 01:30 | Molto Nuvoloso | 15 | 14 | 93 | 1010 | 10 | N 3.6 | |
| Oggi h: 01:00 | Nuvoloso | 16 | 14 | 87 | 1010 | 10 | SO 10.8 | |
| Oggi h: 00:30 | Molto Nuvoloso | 16 | 15 | 93 | 1010 | 10 | O/SO 10.8 | |
| Oggi h: 00:00 | Molto Nuvoloso | 17 | 15 | 88 | 1009 | 10 | O/SO 14.4 | |
| Ieri h: 23:30 | Molto Nuvoloso | 16 | 15 | 93 | 1009 | 10 | SO 10.8 | |
| Ieri h: 23:00 | Nuvoloso | 17 | 15 | 88 | 1009 | 10 | SO 10.8 | |



